This is the latest recevied weather packets stored in our database for station/object IZ2MHJ-3. If no packets are shown the sender has not sent any weather packets the latest 10 day(s).
| Time | Temp. | Humidity | Pressure | Rain* | Wind** | Luminosity | Snow |
|---|---|---|---|---|---|---|---|
| 1778021068 | 13.33° C | 97% | 1014.4 hPa | - | - | - | - |
| 1778019867 | 13.33° C | 98% | 1014.3 hPa | - | - | - | - |
| 1778018667 | 13.33° C | 98% | 1014.5 hPa | - | - | - | - |
| 1778017466 | 13.33° C | 98% | 1014.6 hPa | - | - | - | - |
| 1778016266 | 13.33° C | 98% | 1014.9 hPa | - | - | - | - |
| 1778015066 | 13.33° C | 98% | 1015.2 hPa | - | - | - | - |
| 1778013866 | 13.89° C | 94% | 1015.1 hPa | - | - | - | - |
| 1778012665 | 13.89° C | 93% | 1015 hPa | - | - | - | - |
| 1778011465 | 13.89° C | 92% | 1015.1 hPa | - | - | - | - |
| 1778010265 | 14.44° C | 93% | 1015 hPa | - | - | - | - |
| 1778009064 | 14.44° C | 93% | 1015 hPa | - | - | - | - |
| 1778007864 | 13.89° C | 92% | 1014.7 hPa | - | - | - | - |
| 1778006664 | 13.89° C | 93% | 1014.8 hPa | - | - | - | - |
| 1778005463 | 14.44° C | 92% | 1014.7 hPa | - | - | - | - |
| 1778004263 | 14.44° C | 90% | 1014.7 hPa | - | - | - | - |
| 1778003063 | 14.44° C | 87% | 1014.7 hPa | - | - | - | - |
| 1778001863 | 14.44° C | 88% | 1014.6 hPa | - | - | - | - |
| 1778000662 | 14.44° C | 88% | 1014.6 hPa | - | - | - | - |
| 1777999462 | 14.44° C | 88% | 1014.7 hPa | - | - | - | - |
| 1777998262 | 14.44° C | 88% | 1014.8 hPa | - | - | - | - |
| 1777997061 | 14.44° C | 89% | 1014.9 hPa | - | - | - | - |
| 1777995861 | 14.44° C | 89% | 1015 hPa | - | - | - | - |
| 1777994661 | 14.44° C | 91% | 1015.1 hPa | - | - | - | - |
| 1777993530 | 14.44° C | 92% | 1015.1 hPa | - | - | - | - |
| 1777992329 | 13.89° C | 94% | 1015.2 hPa | - | - | - | - |
* Rain since midnight (hover to see other rain measurements)
** Current wind speed in m/s (hover to see current wind gust speed)